When you browse on this site, cookies collect data to enhance your experience and personalize the content and advertising you see.
Visit our Privacy Policy to learn more. By continuing to use the site, you agree to this use of cookies and data.
  • In Germany
  • List of Countries
  • For 7 days
  • Water Temperature
  • Satellite Maps
  • Weather Map
  • Weather Widgets
  • user-avatar
    Login

    Hourly Weather Konstantyna

    Today, 26 March, Tuesday

    Time Temperature Precipitation Wind Pressure Humidity
    00:00 +8°C° 0 mm 0 mps 709 mmHg 87%
    01:00 +8°C° 0 mm 0 mps 709 mmHg 87%
    02:00 +8°C° 0 mm 0 mps 709 mmHg 86%
    03:00 +8°C° 0 mm 0 mps 709 mmHg 86%
    04:00 +9°C° 0 mm 1 mps 709 mmHg 87%
    05:00 +8°C° 0 mm 1 mps 709 mmHg 89%
    06:00 +8°C° 0 mm 1 mps 709 mmHg 90%
    07:00 +9°C° 0 mm 2 mps 709 mmHg 84%
    08:00 +10°C° 0 mm 2 mps 709 mmHg 78%
    09:00 +13°C° 0 mm 2 mps 710 mmHg 72%
    10:00 +12°C° 0 mm 3 mps 710 mmHg 72%
    11:00 +13°C° 0 mm 3 mps 710 mmHg 72%
    12:00 +13°C° 0 mm 4 mps 710 mmHg 72%
    13:00 +13°C° 0 mm 4 mps 710 mmHg 69%
    14:00 +13°C° 0 mm 4 mps 710 mmHg 67%
    15:00 +13°C° 0 mm 5 mps 710 mmHg 65%
    16:00 +11°C° 0 mm 4 mps 709 mmHg 70%
    17:00 +10°C° 0 mm 4 mps 709 mmHg 76%
    18:00 +8°C° 0 mm 3 mps 709 mmHg 81%
    19:00 +7°C° 0 mm 2 mps 710 mmHg 82%
    20:00 +7°C° 0 mm 2 mps 710 mmHg 83%
    21:00 +7°C° 0 mm 2 mps 711 mmHg 84%
    22:00 +6°C° 0 mm 2 mps 711 mmHg 85%
    23:00 +7°C° 0 mm 1 mps 710 mmHg 86%

    Tomorrow, 27 March, Wednesday

    Time Temperature Precipitation Wind Pressure Humidity
    00:00 +7°C° 0 mm 1 mps 710 mmHg 87%
    01:00 +6°C° 0 mm 1 mps 710 mmHg 88%
    02:00 +6°C° 0 mm 1 mps 710 mmHg 89%
    03:00 +5°C° 0 mm 1 mps 710 mmHg 90%
    04:00 +6°C° 0 mm 1 mps 710 mmHg 88%
    05:00 +6°C° 0 mm 1 mps 710 mmHg 86%
    06:00 +6°C° 0 mm 1 mps 710 mmHg 84%
    07:00 +7°C° 0 mm 1 mps 711 mmHg 80%
    08:00 +9°C° 0 mm 1 mps 711 mmHg 75%
    09:00 +9°C° 0 mm 2 mps 712 mmHg 71%
    10:00 +9°C° 0 mm 2 mps 712 mmHg 70%
    11:00 +10°C° 0 mm 3 mps 712 mmHg 70%
    12:00 +11°C° 0 mm 3 mps 711 mmHg 69%
    13:00 +11°C° 0 mm 3 mps 711 mmHg 70%
    14:00 +11°C° 0 mm 3 mps 711 mmHg 71%
    15:00 +11°C° 0 mm 4 mps 711 mmHg 72%
    16:00 +10°C° 0 mm 3 mps 711 mmHg 78%
    17:00 +9°C° 0 mm 3 mps 711 mmHg 83%
    18:00 +8°C° 0 mm 2 mps 711 mmHg 88%
    19:00 +7°C° 0 mm 2 mps 712 mmHg 90%
    20:00 +7°C° 0 mm 1 mps 712 mmHg 92%
    21:00 +7°C° 0 mm 1 mps 713 mmHg 95%
    22:00 +6°C° 0 mm 1 mps 713 mmHg 95%
    23:00 +6°C° 0 mm 1 mps 713 mmHg 95%

    Day after tomorrow, 28 March, Thursday

    Time Temperature Precipitation Wind Pressure Humidity
    00:00 +6°C° 0 mm 1 mps 713 mmHg 95%
    01:00 +5°C° 0 mm 0 mps 713 mmHg 95%
    02:00 +5°C° 0 mm 0 mps 713 mmHg 95%
    03:00 +4°C° 0 mm 0 mps 712 mmHg 95%
    04:00 +4°C° 0 mm 0 mps 713 mmHg 95%
    05:00 +4°C° 0 mm 0 mps 713 mmHg 95%
    06:00 +4°C° 0 mm 0 mps 713 mmHg 95%
    07:00 +7°C° 0 mm 1 mps 713 mmHg 87%
    08:00 +9°C° 0 mm 1 mps 714 mmHg 80%
    09:00 +11°C° 0 mm 1 mps 715 mmHg 73%
    10:00 +12°C° 0.1 mm 1 mps 715 mmHg 71%
    11:00 +12°C° 0.1 mm 1 mps 715 mmHg 68%
    12:00 +13°C° 0.1 mm 2 mps 714 mmHg 66%
    13:00 +13°C° 0.2 mm 2 mps 714 mmHg 68%
    14:00 +12°C° 0.2 mm 3 mps 714 mmHg 69%
    15:00 +12°C° 0.2 mm 3 mps 714 mmHg 71%
    16:00 +11°C° 0.1 mm 3 mps 714 mmHg 78%
    17:00 +10°C° 0.1 mm 2 mps 714 mmHg 85%
    18:00 +8°C° 0.1 mm 2 mps 714 mmHg 92%
    19:00 +8°C° 0 mm 1 mps 714 mmHg 94%
    20:00 +8°C° 0 mm 1 mps 714 mmHg 95%
    21:00 +6°C° 0 mm 0 mps 715 mmHg 96%
    22:00 +6°C° 0 mm 0 mps 715 mmHg 96%
    23:00 +5°C° 0 mm 0 mps 715 mmHg 96%

    29 March, Friday

    Time Temperature Precipitation Wind Pressure Humidity
    00:00 +5°C° 0 mm 0 mps 714 mmHg 96%
    01:00 +5°C° 0 mm 0 mps 714 mmHg 95%
    02:00 +4°C° 0 mm 0 mps 714 mmHg 94%
    03:00 +4°C° 0 mm 0 mps 714 mmHg 93%
    04:00 +5°C° 0 mm 0 mps 714 mmHg 92%
    05:00 +5°C° 0 mm 0 mps 714 mmHg 92%
    06:00 +5°C° 0 mm 0 mps 715 mmHg 91%
    07:00 +7°C° 0 mm 0 mps 715 mmHg 83%
    08:00 +10°C° 0 mm 0 mps 716 mmHg 75%
    09:00 +12°C° 0 mm 0 mps 716 mmHg 67%
    10:00 +14°C° 0.1 mm 1 mps 716 mmHg 63%
    11:00 +15°C° 0.1 mm 1 mps 716 mmHg 60%
    12:00 +15°C° 0.1 mm 1 mps 716 mmHg 56%
    13:00 +15°C° 0.2 mm 2 mps 715 mmHg 59%
    14:00 +15°C° 0.2 mm 2 mps 715 mmHg 61%
    15:00 +14°C° 0.2 mm 3 mps 715 mmHg 64%
    16:00 +13°C° 0.4 mm 3 mps 715 mmHg 72%
    17:00 +11°C° 0.4 mm 3 mps 714 mmHg 80%
    18:00 +9°C° 0.4 mm 2 mps 714 mmHg 88%
    19:00 +9°C° 0.1 mm 2 mps 715 mmHg 89%
    20:00 +9°C° 0.1 mm 2 mps 715 mmHg 90%
    21:00 +10°C° 0.1 mm 1 mps 715 mmHg 91%
    22:00 +10°C° 0 mm 1 mps 715 mmHg 90%
    23:00 +9°C° 0 mm 1 mps 715 mmHg 90%

    30 March, Saturday

    Time Temperature Precipitation Wind Pressure Humidity
    00:00 +8°C° 0 mm 1 mps 715 mmHg 90%
    01:00 +8°C° 0 mm 1 mps 715 mmHg 88%
    02:00 +8°C° 0 mm 1 mps 714 mmHg 86%
    03:00 +8°C° 0 mm 1 mps 714 mmHg 85%
    04:00 +8°C° 0 mm 1 mps 714 mmHg 83%
    05:00 +8°C° 0 mm 1 mps 714 mmHg 81%
    06:00 +8°C° 0 mm 1 mps 714 mmHg 80%
    07:00 +10°C° 0 mm 2 mps 715 mmHg 72%
    08:00 +13°C° 0 mm 2 mps 715 mmHg 64%
    09:00 +16°C° 0 mm 2 mps 716 mmHg 56%
    10:00 +17°C° 0 mm 2 mps 715 mmHg 52%
    11:00 +18°C° 0 mm 2 mps 715 mmHg 49%
    12:00 +20°C° 0 mm 1 mps 715 mmHg 45%
    13:00 +19°C° 0.1 mm 1 mps 715 mmHg 48%
    14:00 +19°C° 0.1 mm 1 mps 714 mmHg 51%
    15:00 +19°C° 0.1 mm 1 mps 713 mmHg 54%
    16:00 +16°C° 0.2 mm 1 mps 713 mmHg 61%
    17:00 +15°C° 0.2 mm 1 mps 713 mmHg 68%
    18:00 +13°C° 0.2 mm 1 mps 712 mmHg 75%
    19:00 +12°C° 0 mm 1 mps 713 mmHg 78%
    20:00 +12°C° 0 mm 1 mps 713 mmHg 80%
    21:00 +11°C° 0 mm 1 mps 713 mmHg 83%
    22:00 +10°C° 0 mm 1 mps 712 mmHg 82%
    23:00 +10°C° 0 mm 1 mps 712 mmHg 81%

    31 March, Sunday

    Time Temperature Precipitation Wind Pressure Humidity
    00:00 +10°C° 0 mm 1 mps 711 mmHg 81%
    01:00 +10°C° 0 mm 1 mps 711 mmHg 80%
    02:00 +10°C° 0 mm 1 mps 711 mmHg 79%
    03:00 +9°C° 0 mm 1 mps 710 mmHg 79%
    04:00 +10°C° 0 mm 1 mps 710 mmHg 79%
    05:00 +9°C° 0 mm 2 mps 710 mmHg 79%
    06:00 +9°C° 0 mm 2 mps 710 mmHg 79%
    07:00 +12°C° 0 mm 2 mps 710 mmHg 71%
    08:00 +14°C° 0 mm 2 mps 710 mmHg 63%
    09:00 +16°C° 0 mm 2 mps 711 mmHg 55%
    10:00 +17°C° 0 mm 2 mps 710 mmHg 52%
    11:00 +18°C° 0 mm 2 mps 710 mmHg 49%
    12:00 +18°C° 0 mm 2 mps 710 mmHg 47%
    13:00 +18°C° 0 mm 2 mps 709 mmHg 49%
    14:00 +17°C° 0 mm 2 mps 709 mmHg 51%
    15:00 +18°C° 0 mm 1 mps 708 mmHg 53%
    16:00 +15°C° 0 mm 1 mps 708 mmHg 58%
    17:00 +14°C° 0 mm 1 mps 708 mmHg 64%
    18:00 +11°C° 0 mm 0 mps 708 mmHg 69%
    19:00 +11°C° 0 mm 0 mps 708 mmHg 71%
    20:00 +11°C° 0 mm 0 mps 708 mmHg 73%
    21:00 +10°C° 0 mm 0 mps 708 mmHg 75%
    22:00 +10°C° 0 mm 0 mps 708 mmHg 76%
    23:00 +10°C° 0 mm 0 mps 708 mmHg 77%
    Show more